This is the latest recevied weather packets stored in our database for station/object KD7AWQ. If no packets are shown the sender has not sent any weather packets the latest 10 day(s).
| Time | Temp. | Humidity | Pressure | Rain* | Wind** | Luminosity | Snow |
|---|---|---|---|---|---|---|---|
| 1788461140 | 28.33° C | 46% | 1187.9 hPa | 0 mm | - | 408 W/m² | - |
| 1788460835 | 28.33° C | 45% | 1187.7 hPa | 0 mm | - | 521 W/m² | - |
| 1788460534 | 27.78° C | 46% | 1187.9 hPa | 0 mm | - | 460 W/m² | - |
| 1788460230 | 27.78° C | 46% | 1188 hPa | 0 mm | - | 459 W/m² | - |
| 1788459928 | 28.33° C | 46% | 1188.1 hPa | 0 mm | - | 435 W/m² | - |
| 1788459625 | 28.33° C | 46% | 1188.1 hPa | 0 mm | - | 413 W/m² | - |
| 1788459318 | 28.89° C | 45% | 1188.1 hPa | 0 mm | - | 388 W/m² | - |
| 1788459018 | 28.89° C | 44% | 1188.4 hPa | 0 mm | - | 751 W/m² | - |
| 1788458713 | 28.33° C | 45% | 1188.6 hPa | 0 mm | - | 564 W/m² | - |
| 1788458413 | 28.89° C | 45% | 1188.3 hPa | 0 mm | - | 506 W/m² | - |
| 1788458111 | 28.89° C | 45% | 1188.6 hPa | 0 mm | - | 640 W/m² | - |
| 1788457811 | 28.33° C | 46% | 1188.7 hPa | 0 mm | - | 519 W/m² | - |
| 1788457506 | 27.78° C | 47% | 1188.7 hPa | 0 mm | - | 646 W/m² | - |
| 1788457201 | 27.78° C | 47% | 1188.4 hPa | 0 mm | - | 738 W/m² | - |
| 1788456895 | 27.78° C | 46% | 1188.8 hPa | 0 mm | - | 635 W/m² | - |
| 1788456591 | 27.78° C | 46% | 1188.8 hPa | 0 mm | - | 761 W/m² | - |
| 1788456286 | 27.78° C | 47% | 1188.8 hPa | 0 mm | - | 757 W/m² | - |
| 1788455982 | 27.78° C | 47% | 1188.6 hPa | 0 mm | - | 1011 W/m² | - |
| 1788455676 | 28.33° C | 46% | 1188.9 hPa | 0 mm | - | 1054 W/m² | - |
| 1788455377 | 27.78° C | 46% | 1188.7 hPa | 0 mm | - | 1046 W/m² | - |
| 1788455071 | 27.78° C | 47% | 1188.8 hPa | 0 mm | - | 1043 W/m² | - |
| 1788454770 | 27.78° C | 48% | 1188.9 hPa | 0 mm | - | 507 W/m² | - |
| 1788454465 | 27.78° C | 49% | 1189 hPa | 0 mm | - | 813 W/m² | - |
| 1788454165 | 27.78° C | 48% | 1188.7 hPa | 0 mm | - | 946 W/m² | - |
| 1788453860 | 27.22° C | 50% | 1188.8 hPa | 0 mm | - | 924 W/m² | - |
* Rain latest hour (hover to see other rain measurements)
** Current wind speed in m/s (hover to see current wind gust speed)